Regional Weather Roundup
Issued by NWS Sioux Falls, SD

Home | Current Version | Previous Version | Text Only | Print | Product List | Glossary Off
Versions: 1 2 3 4 5 6 7 8 9 10 11 12 13 14 15 16 17 18 19 20 21 22 23 24 25 26 27 28 29 30 31 32 33 34 35 36 37 38 39 40 41 42 43 44 45 46 47 48 49 50

000
ASUS43 KFSD 050610
RWRFSD

WEATHER ROUNDUP FOR SE SOUTH DAKOTA/SW MINNESOTA/NW IOWA
NATIONAL WEATHER SERVICE SIOUX FALLS SD
100 AM CDT TUE MAY 05 2015

NOTE: "FAIR" INDICATES FEW OR NO CLOUDS BELOW 12,000 FEET WITH NO
SIGNIFICANT WEATHER AND OR OBSTRUCTIONS TO VISIBILITY.


SDZ038>040-050-052>070-050700-
SOUTHEAST SOUTH DAKOTA

CITY           SKY/WX    TMP DP  RH WIND       PRES   REMARKS
BROOKINGS      PTCLDY    55  28  35 E8        30.18S
CHAMBERLAIN    CLOUDY    51  36  57 SE6       30.11S
6HR MIN TEMP:  45; 6HR MAX TEMP:  68;

HURON          CLEAR     54  31  41 SE8       30.13S
6HR MIN TEMP:  54; 6HR MAX TEMP:  70;

MADISON        FAIR      46  27  46 E5        30.16S
MITCHELL       CLEAR     50  35  56 SE6       30.14R
6HR MIN TEMP:  50; 6HR MAX TEMP:  73;

SIOUX FALLS    MOCLDY    51  31  46 E7        30.15S
6HR MIN TEMP:  50; 6HR MAX TEMP:  69;

WINNER         FAIR      53  34  48 SE5       30.11F
YANKTON        PTCLDY    50  43  76 N6        30.12F
$$

MNZ071-072-080-081-089-090-097-098-050700-
SOUTHWEST MINNESOTA

CITY           SKY/WX    TMP DP  RH WIND       PRES   REMARKS
FAIRMONT       CLOUDY    54  30  40 NE6       30.16S
JACKSON        CLOUDY    54  32  43 E7        30.17S
LUVERNE        PTCLDY    52  32  46 NE3       30.16S
MARSHALL       CLEAR     52  28  40 CALM      30.18S
6HR MIN TEMP:  52; 6HR MAX TEMP:  70;

MONTEVIDEO     CLEAR     50  30  46 S6        30.21R
REDWOOD FALLS  PTCLDY    57  28  33 E6        30.19R
TRACY          PTCLDY    52  32  45 E3        30.18S
WORTHINGTON    MOCLDY    48  27  43 NE3       30.17S
$$

IAZ001>003-012>014-020>022-031-032-NEZ013-014-SDZ071-050700-
NORTHWEST IOWA

CITY           SKY/WX    TMP DP  RH WIND       PRES   REMARKS
CHEROKEE       CLOUDY    54  49  85 NE5       30.13S
DENISON        CLOUDY    55  55 100 VRB6      30.08F FOG
ESTHERVILLE    CLOUDY    49  36  61 NE7       30.15S
LE MARS        CLOUDY    54  45  71 N5        30.14S
ORANGE CITY    MOCLDY    54  37  54 E5        30.14S
SHELDON        CLOUDY    52  39  62 E6        30.14S
SIOUX CITY     CLOUDY    59  48  67 NE6       30.11F
6HR MIN TEMP:  57; 6HR MAX TEMP:  62;

SPENCER        CLOUDY    52  42  69 NE8       30.15S
6HR MIN TEMP:  52; 6HR MAX TEMP:  67;

STORM LAKE     CLOUDY    57  50  77 NE9       30.13F
$$

ABBREVIATIONS USED IN REMARKS
   TC - TEMPERATURE IN CELSIUS
  WCI - WIND CHILL INDEX
   HX - HEAT INDEX
  VSB - VISIBILITY



USA.gov is the U.S. government's official web portal to all federal, state and local government web resources and services.